Hundvaag 1 weather for Dec 1992
Month no. 66
Obs.
Da.
Temp. Dew Point Precip. Wind
Speed
Wind gusts Cloud cover Press. Humidity Wind dir. Sunny OPT
01.12.1992 5,0   47,5                
02.12.1992 7,3   9,5                
03.12.1992 5,3   33,3                
04.12.1992 2,7   10,1                
05.12.1992 2,1   8,8                
06.12.1992 2,2   10,0             1  
07.12.1992 2,3   0,0             1  
08.12.1992 4,4   0,0             1  
09.12.1992 2,6   0,2                
10.12.1992 4,8   0,1                
11.12.1992 5,4   27,2                
12.12.1992 1,5   7,5                
13.12.1992 0,7   1,7                
14.12.1992 7,4   19,0                
15.12.1992 7,7   0,5                
16.12.1992 6,2   1,0                
17.12.1992 2,8   5,5             1  
18.12.1992 7,1   0,0                
19.12.1992 3,0   32,9                
20.12.1992 0,9   0,0             1  
21.12.1992 -2,8   0,0             1  
22.12.1992 1,1   0,0                
23.12.1992 -1,5   0,0                
24.12.1992 2,0   0,0                
25.12.1992 4,0   0,0             1  
26.12.1992 2,4   3,1             1  
27.12.1992 1,2   0,0             1  
28.12.1992 2,8   0,0                
29.12.1992 2,9   1,0                
30.12.1992 2,3   0,0                
31.12.1992 3,9   0,0                
Avrg/Sum 3,2   219,0             9